Tracking 19920 objects as of 15-Oct-2019
HD Live streaming from Space Station
objects crossing your sky now

SKYSAT C13

Track SKYSAT C13 now!
10-day predictions


NORAD ID: 43802
Int'l Code: 2018-099AW
Perigee: 498.3 km
Apogee: 506.6 km
Inclination: 97.4 °
Period: 94.5 minutes
Semi major axis: 6873 km
RCS: Unknown
Launch date: December 3, 2018
Source: United States (US)
Launch site: AIR FORCE WESTERN TEST RANGE (AFWTR)
aabbcc
Your satellite tracking list
Your tracking list is empty




NASA's NSSDC Master Catalog

Two Line Element Set (TLE):
1 43802U 18099AW  19287.75949292  .00000498  00000-0  23784-4 0  9997
2 43802  97.3935 358.4885 0006025 153.8545 206.2997 15.23498186 47362
Source of the keplerian elements: AFSPC